When you browse on this site, cookies collect data to enhance your experience and personalize the content and advertising you see.
Visit our Privacy Policy to learn more. By continuing to use the site, you agree to this use of cookies and data.
  • In Austria
  • List of Countries
  • For 7 days
  • Water Temperature
  • Satellite Maps
  • Weather Map
  • News
  • Weather Widgets
  • user-avatar
    Login

    Hourly Weather Rybojady

    Today, 21 March, Thursday

    Time Temperature Precipitation Wind Pressure Humidity
    00:00 +5°C° 0 mm 3 mps 769 mmHg 75%
    01:00 +5°C° 0 mm 3 mps 769 mmHg 79%
    02:00 +5°C° 0 mm 3 mps 769 mmHg 84%
    03:00 +5°C° 0 mm 3 mps 769 mmHg 88%
    04:00 +4°C° 0 mm 3 mps 768 mmHg 92%
    05:00 +5°C° 0 mm 2 mps 769 mmHg 94%
    06:00 +5°C° 0 mm 2 mps 769 mmHg 95%
    07:00 +5°C° 0 mm 2 mps 769 mmHg 97%
    08:00 +7°C° 0 mm 3 mps 769 mmHg 90%
    09:00 +9°C° 0 mm 3 mps 769 mmHg 84%
    10:00 +11°C° 0 mm 4 mps 769 mmHg 77%
    11:00 +11°C° 0 mm 4 mps 769 mmHg 75%
    12:00 +12°C° 0 mm 4 mps 769 mmHg 73%
    13:00 +12°C° 0 mm 4 mps 769 mmHg 71%
    14:00 +12°C° 0 mm 4 mps 769 mmHg 71%
    15:00 +13°C° 0 mm 3 mps 768 mmHg 71%
    16:00 +13°C° 0 mm 3 mps 768 mmHg 71%
    17:00 +12°C° 0 mm 3 mps 768 mmHg 74%
    18:00 +12°C° 0 mm 3 mps 768 mmHg 77%
    19:00 +12°C° 0 mm 2 mps 768 mmHg 80%
    20:00 +12°C° 0 mm 2 mps 768 mmHg 83%
    21:00 +10°C° 0 mm 2 mps 768 mmHg 87%
    22:00 +9°C° 0 mm 2 mps 768 mmHg 90%
    23:00 +9°C° 0 mm 2 mps 768 mmHg 91%

    Tomorrow, 22 March, Friday

    Time Temperature Precipitation Wind Pressure Humidity
    00:00 +9°C° 0 mm 2 mps 769 mmHg 92%
    01:00 +8°C° 0 mm 2 mps 769 mmHg 93%
    02:00 +9°C° 0 mm 2 mps 769 mmHg 94%
    03:00 +9°C° 0 mm 2 mps 768 mmHg 94%
    04:00 +9°C° 0 mm 2 mps 768 mmHg 94%
    05:00 +10°C° 0 mm 1 mps 768 mmHg 94%
    06:00 +9°C° 0 mm 1 mps 769 mmHg 95%
    07:00 +9°C° 0 mm 1 mps 769 mmHg 95%
    08:00 +11°C° 0 mm 1 mps 769 mmHg 88%
    09:00 +13°C° 0 mm 1 mps 769 mmHg 80%
    10:00 +14°C° 0 mm 2 mps 769 mmHg 72%
    11:00 +15°C° 0 mm 2 mps 769 mmHg 67%
    12:00 +16°C° 0 mm 2 mps 768 mmHg 62%
    13:00 +18°C° 0 mm 2 mps 768 mmHg 57%
    14:00 +19°C° 0 mm 1 mps 768 mmHg 57%
    15:00 +19°C° 0 mm 1 mps 767 mmHg 57%
    16:00 +17°C° 0 mm 0 mps 767 mmHg 56%
    17:00 +18°C° 0 mm 1 mps 767 mmHg 61%
    18:00 +15°C° 0 mm 1 mps 767 mmHg 66%
    19:00 +14°C° 0 mm 2 mps 767 mmHg 72%
    20:00 +13°C° 0 mm 2 mps 766 mmHg 76%
    21:00 +12°C° 0 mm 2 mps 766 mmHg 81%
    22:00 +12°C° 0 mm 2 mps 766 mmHg 86%
    23:00 +10°C° 0 mm 2 mps 766 mmHg 87%

    Day after tomorrow, 23 March, Saturday

    Time Temperature Precipitation Wind Pressure Humidity
    00:00 +10°C° 0 mm 2 mps 766 mmHg 89%
    01:00 +10°C° 0 mm 2 mps 766 mmHg 91%
    02:00 +9°C° 0 mm 2 mps 765 mmHg 91%
    03:00 +9°C° 0 mm 2 mps 765 mmHg 91%
    04:00 +9°C° 0 mm 2 mps 764 mmHg 91%
    05:00 +9°C° 0 mm 2 mps 764 mmHg 90%
    06:00 +9°C° 0 mm 2 mps 764 mmHg 88%
    07:00 +9°C° 0 mm 2 mps 764 mmHg 87%
    08:00 +12°C° 0 mm 2 mps 764 mmHg 78%
    09:00 +14°C° 0 mm 2 mps 764 mmHg 70%
    10:00 +16°C° 0 mm 3 mps 764 mmHg 61%
    11:00 +17°C° 0 mm 3 mps 763 mmHg 57%
    12:00 +18°C° 0 mm 3 mps 763 mmHg 53%
    13:00 +20°C° 0 mm 3 mps 763 mmHg 49%
    14:00 +19°C° 0 mm 3 mps 763 mmHg 50%
    15:00 +19°C° 0 mm 3 mps 763 mmHg 52%
    16:00 +19°C° 0 mm 4 mps 763 mmHg 53%
    17:00 +17°C° 0.1 mm 4 mps 763 mmHg 60%
    18:00 +14°C° 0.1 mm 4 mps 763 mmHg 68%
    19:00 +12°C° 0.1 mm 5 mps 764 mmHg 75%
    20:00 +11°C° 0 mm 4 mps 764 mmHg 75%
    21:00 +10°C° 0 mm 4 mps 765 mmHg 75%
    22:00 +7°C° 0 mm 4 mps 765 mmHg 75%
    23:00 +8°C° 0 mm 3 mps 765 mmHg 71%

    24 March, Sunday

    Time Temperature Precipitation Wind Pressure Humidity
    00:00 +7°C° 0 mm 3 mps 766 mmHg 67%
    01:00 +5°C° 0 mm 3 mps 766 mmHg 62%
    02:00 +5°C° 0 mm 3 mps 766 mmHg 63%
    03:00 +5°C° 0 mm 2 mps 766 mmHg 64%
    04:00 +4°C° 0 mm 2 mps 766 mmHg 66%
    05:00 +4°C° 0 mm 2 mps 766 mmHg 66%
    06:00 +4°C° 0 mm 2 mps 766 mmHg 67%
    07:00 +4°C° 0 mm 2 mps 766 mmHg 67%
    08:00 +5°C° 0 mm 2 mps 766 mmHg 60%
    09:00 +7°C° 0 mm 2 mps 766 mmHg 53%
    10:00 +8°C° 0 mm 2 mps 766 mmHg 47%
    11:00 +9°C° 0 mm 2 mps 765 mmHg 43%
    12:00 +10°C° 0 mm 2 mps 765 mmHg 39%
    13:00 +12°C° 0 mm 1 mps 764 mmHg 35%
    14:00 +12°C° 0 mm 1 mps 764 mmHg 34%
    15:00 +12°C° 0 mm 1 mps 763 mmHg 34%
    16:00 +13°C° 0 mm 1 mps 762 mmHg 33%
    17:00 +11°C° 0 mm 1 mps 762 mmHg 38%
    18:00 +10°C° 0 mm 1 mps 762 mmHg 42%
    19:00 +9°C° 0 mm 1 mps 762 mmHg 46%
    20:00 +8°C° 0 mm 1 mps 762 mmHg 48%
    21:00 +8°C° 0 mm 1 mps 761 mmHg 50%
    22:00 +8°C° 0 mm 1 mps 761 mmHg 52%
    23:00 +7°C° 0 mm 1 mps 761 mmHg 53%

    25 March, Monday

    Time Temperature Precipitation Wind Pressure Humidity
    00:00 +7°C° 0 mm 1 mps 760 mmHg 55%
    01:00 +7°C° 0 mm 1 mps 760 mmHg 57%
    02:00 +7°C° 0 mm 1 mps 760 mmHg 59%
    03:00 +6°C° 0 mm 1 mps 759 mmHg 61%
    04:00 +5°C° 0 mm 2 mps 759 mmHg 63%
    05:00 +5°C° 0 mm 2 mps 759 mmHg 65%
    06:00 +5°C° 0 mm 2 mps 759 mmHg 67%
    07:00 +3°C° 0 mm 3 mps 759 mmHg 70%
    08:00 +5°C° 0 mm 4 mps 759 mmHg 62%
    09:00 +6°C° 0 mm 5 mps 759 mmHg 54%
    10:00 +7°C° 0 mm 6 mps 758 mmHg 47%
    11:00 +8°C° 0 mm 6 mps 758 mmHg 49%
    12:00 +8°C° 0 mm 7 mps 757 mmHg 51%
    13:00 +8°C° 0 mm 7 mps 757 mmHg 53%
    14:00 +7°C° 0.5 mm 8 mps 756 mmHg 57%
    15:00 +6°C° 0.5 mm 8 mps 756 mmHg 60%
    16:00 +6°C° 0.5 mm 9 mps 755 mmHg 64%
    17:00 +5°C° 0.3 mm 8 mps 755 mmHg 65%
    18:00 +4°C° 0.3 mm 7 mps 755 mmHg 66%
    19:00 +3°C° 0.3 mm 6 mps 755 mmHg 67%
    20:00 +3°C° 0 mm 6 mps 755 mmHg 69%
    21:00 +2°C° 0 mm 6 mps 755 mmHg 70%
    22:00 +1°C° 0 mm 6 mps 755 mmHg 72%
    23:00 0°C° 0.1 mm 7 mps 755 mmHg 72%

    26 March, Tuesday

    Time Temperature Precipitation Wind Pressure Humidity
    00:00 0°C° 0.1 mm 7 mps 755 mmHg 72%
    01:00 0°C° 0.1 mm 8 mps 754 mmHg 72%
    02:00 0°C° 0 mm 8 mps 754 mmHg 70%
    03:00 0°C° 0 mm 8 mps 754 mmHg 69%
    04:00 -1°C° 0 mm 8 mps 754 mmHg 68%
    05:00 -1°C° 0.1 mm 8 mps 754 mmHg 64%
    06:00 -1°C° 0.1 mm 9 mps 755 mmHg 60%
    07:00 0°C° 0.1 mm 9 mps 755 mmHg 57%
    08:00 0°C° 0.1 mm 9 mps 756 mmHg 55%
    09:00 0°C° 0.1 mm 9 mps 757 mmHg 53%
    10:00 0°C° 0.1 mm 9 mps 758 mmHg 51%
    11:00 +1°C° 0 mm 9 mps 758 mmHg 48%
    12:00 +1°C° 0 mm 9 mps 759 mmHg 45%
    13:00 +2°C° 0 mm 9 mps 759 mmHg 42%
    14:00 +2°C° 0 mm 9 mps 760 mmHg 44%
    15:00 +1°C° 0 mm 8 mps 760 mmHg 45%
    16:00 +1°C° 0 mm 8 mps 761 mmHg 47%
    17:00 +2°C° 0 mm 7 mps 762 mmHg 49%
    18:00 +1°C° 0 mm 6 mps 762 mmHg 51%
    19:00 0°C° 0 mm 5 mps 763 mmHg 54%
    20:00 0°C° 0 mm 5 mps 763 mmHg 56%
    21:00 -1°C° 0 mm 5 mps 764 mmHg 58%
    22:00 -1°C° 0 mm 5 mps 764 mmHg 60%
    23:00 -2°C° 0 mm 5 mps 764 mmHg 61%
    Show more